TimeAEST,TemperatureF,Dew PointF,Humidity,Sea Level PressureIn,VisibilityMPH,Wind Direction,Wind SpeedMPH,Gust SpeedMPH,PrecipitationIn,Events,Conditions,WindDirDegrees,DateUTC
12:00 AM,69,67,92,29.86,,Calm,Calm,,,,,,2013-09-21 14:00:00
12:00 AM,69.8,68.0,94,29.86,6.2,Calm,Calm,-,N/A,,Scattered Clouds,0,2013-09-21 14:00:00
12:30 AM,68.0,68.0,100,29.83,6.2,Calm,Calm,-,N/A,,Scattered Clouds,0,2013-09-21 14:30:00
1:00 AM,67,65,91,29.86,,Calm,Calm,,,,,,2013-09-21 15:00:00
1:00 AM,66.2,64.4,94,29.86,-9999.0,Calm,Calm,-,N/A,,Clear,0,2013-09-21 15:00:00
1:30 AM,71.6,66.2,83,29.86,-9999.0,SSE,9.2,-,N/A,,Clear,160,2013-09-21 15:30:00
2:00 AM,71.6,66.2,83,29.86,6.2,SSE,9.2,-,N/A,,Partly Cloudy,160,2013-09-21 16:00:00
2:30 AM,71.6,64.4,78,29.86,6.2,South,6.9,-,N/A,,Partly Cloudy,170,2013-09-21 16:30:00
3:00 AM,71,66,80,29.86,,SSE,4.6,,,,,160,2013-09-21 17:00:00
3:00 AM,71.6,66.2,83,29.86,6.2,SSE,4.6,-,N/A,,Partly Cloudy,160,2013-09-21 17:00:00
3:30 AM,66.2,64.4,94,29.86,6.2,NW,3.5,-,N/A,,Partly Cloudy,320,2013-09-21 17:30:00
4:00 AM,68,65,88,29.86,,South,3.5,,,,,180,2013-09-21 18:00:00
4:00 AM,68.0,66.2,94,29.86,6.2,South,3.5,-,N/A,,Partly Cloudy,180,2013-09-21 18:00:00
4:30 AM,66.2,64.4,94,29.86,6.2,West,4.6,-,N/A,,Unknown,270,2013-09-21 18:30:00
5:00 AM,66.2,64.4,94,29.86,6.2,Calm,Calm,-,N/A,,Partly Cloudy,0,2013-09-21 19:00:00
5:30 AM,66.2,64.4,94,29.86,6.2,Calm,Calm,-,N/A,,Scattered Clouds,0,2013-09-21 19:30:00
6:00 AM,65,63,92,29.89,16,Calm,Calm,,,,Partly Cloudy,,2013-09-21 20:00:00
6:00 AM,64.4,62.6,94,29.89,6.2,Calm,Calm,-,N/A,,Mostly Cloudy,0,2013-09-21 20:00:00
6:30 AM,66.2,64.4,94,29.89,6.2,West,4.6,-,N/A,,Mostly Cloudy,270,2013-09-21 20:30:00
7:00 AM,68,65,87,29.91,,WNW,4.6,,,,,290,2013-09-21 21:00:00
7:00 AM,68.0,64.4,88,29.89,6.2,WNW,4.6,-,N/A,,Mostly Cloudy,290,2013-09-21 21:00:00
7:30 AM,69.8,66.2,88,29.92,6.2,West,4.6,-,N/A,,Mostly Cloudy,280,2013-09-21 21:30:00
8:00 AM,73.4,64.4,73,29.92,6.2,NNW,2.3,-,N/A,,Mostly Cloudy,330,2013-09-21 22:00:00
8:30 AM,77.0,64.4,65,29.92,6.2,SE,8.1,-,N/A,,Mostly Cloudy,140,2013-09-21 22:30:00
9:00 AM,79,65,53,29.93,19,SSE,8.1,,,,Partly Cloudy,150,2013-09-21 23:00:00
9:00 AM,78.8,64.4,61,29.92,6.2,SSE,8.1,-,N/A,,Mostly Cloudy,150,2013-09-21 23:00:00
9:30 AM,80.6,64.4,58,29.92,6.2,SSE,6.9,-,N/A,,Mostly Cloudy,150,2013-09-21 23:30:00
10:00 AM,82.4,64.4,54,29.92,6.2,SE,6.9,-,N/A,,Mostly Cloudy,130,2013-09-22 00:00:00
10:30 AM,82.4,64.4,54,29.89,6.2,ENE,10.4,-,N/A,,Mostly Cloudy,60,2013-09-22 00:30:00
11:00 AM,82.4,64.4,54,29.89,6.2,NE,11.5,-,N/A,,Mostly Cloudy,50,2013-09-22 01:00:00
11:30 AM,80.6,66.2,61,29.89,6.2,NE,11.5,-,N/A,,Mostly Cloudy,50,2013-09-22 01:30:00
12:00 PM,82,68,54,29.88,19,ENE,11.5,,,,Partly Cloudy,60,2013-09-22 02:00:00
12:00 PM,82.4,68.0,62,29.89,6.2,NE,11.5,-,N/A,,Mostly Cloudy,50,2013-09-22 02:00:00
12:30 PM,82.4,68.0,62,29.86,6.2,NE,12.7,-,N/A,,Mostly Cloudy,50,2013-09-22 02:30:00
1:00 PM,82,69,56,29.87,,NE,11.5,,,,,50,2013-09-22 03:00:00
1:00 PM,82.4,68.0,62,29.86,6.2,NE,11.5,-,N/A,,Scattered Clouds,50,2013-09-22 03:00:00
1:30 PM,82.4,69.8,66,29.83,6.2,NE,12.7,-,N/A,,Partly Cloudy,50,2013-09-22 03:30:00
2:00 PM,82.4,69.8,66,29.83,6.2,NE,12.7,-,N/A,,Partly Cloudy,40,2013-09-22 04:00:00
2:30 PM,82.4,69.8,66,29.83,6.2,NE,12.7,-,N/A,,Partly Cloudy,50,2013-09-22 04:30:00
3:00 PM,80.6,69.8,70,29.80,6.2,NE,13.8,-,N/A,,Partly Cloudy,40,2013-09-22 05:00:00
3:30 PM,80.6,68.0,65,29.80,6.2,ENE,13.8,-,N/A,,Partly Cloudy,60,2013-09-22 05:30:00
4:00 PM,80.6,68.0,65,29.80,6.2,ENE,12.7,-,N/A,,Partly Cloudy,60,2013-09-22 06:00:00
4:30 PM,80.6,68.0,65,29.80,6.2,ENE,13.8,-,N/A,,Partly Cloudy,70,2013-09-22 06:30:00
5:00 PM,80.6,66.2,61,29.80,6.2,East,11.5,-,N/A,,Partly Cloudy,80,2013-09-22 07:00:00
5:30 PM,78.8,68.0,69,29.83,6.2,ENE,11.5,-,N/A,,Partly Cloudy,70,2013-09-22 07:30:00
6:00 PM,77,68,67,29.85,,East,10.4,,,,,90,2013-09-22 08:00:00
6:00 PM,77.0,68.0,74,29.83,6.2,East,10.4,-,N/A,,Partly Cloudy,90,2013-09-22 08:00:00
6:30 PM,77.0,68.0,74,29.86,6.2,East,8.1,-,N/A,,Unknown,90,2013-09-22 08:30:00
7:00 PM,76,68,69,29.88,,East,6.9,,,,,100,2013-09-22 09:00:00
7:00 PM,77.0,68.0,74,29.86,6.2,East,6.9,-,N/A,,Partly Cloudy,100,2013-09-22 09:00:00
7:30 PM,75.2,68.0,78,29.86,6.2,ESE,6.9,-,N/A,,Partly Cloudy,120,2013-09-22 09:30:00
8:00 PM,75.2,68.0,78,29.89,6.2,SSE,5.8,-,N/A,,Partly Cloudy,150,2013-09-22 10:00:00
8:30 PM,71.6,68.0,88,29.89,6.2,SSE,4.6,-,N/A,,Partly Cloudy,160,2013-09-22 10:30:00
9:00 PM,73,68,78,29.91,,South,4.6,,,,,170,2013-09-22 11:00:00
9:00 PM,73.4,68.0,83,29.92,6.2,South,4.6,-,N/A,,Partly Cloudy,170,2013-09-22 11:00:00
9:30 PM,73.4,68.0,83,29.92,6.2,SSE,8.1,-,N/A,,Partly Cloudy,160,2013-09-22 11:30:00
10:00 PM,73,68,78,29.93,,South,6.9,,,,,170,2013-09-22 12:00:00
10:00 PM,73.4,68.0,83,29.92,6.2,South,6.9,-,N/A,,Partly Cloudy,170,2013-09-22 12:00:00
10:30 PM,71.6,68.0,88,29.92,6.2,Calm,Calm,-,N/A,,Partly Cloudy,0,2013-09-22 12:30:00
11:00 PM,71.6,68.0,88,29.92,6.2,South,1.2,-,N/A,,Partly Cloudy,170,2013-09-22 13:00:00
11:30 PM,69.8,66.2,88,29.92,6.2,WNW,2.3,-,N/A,,Partly Cloudy,290,2013-09-22 13:30:00